[[{"header":{"parameterUnit":"m.s-1","parameterCategory":1,"la1":30.2991,"la2":30.254,"lo1":-89.0895,"lo2":-89.0444,"dy":0.0017,"dx":0.0017,"nx":28,"ny":28,"refTime":"2024-03-16T03:00:00:Z","depth":0,"parameterNumber":2,"parameterNumberName":"U-component_of_WINDS"},"data":[0,0,0,0,0,0,0,0,0,0,0,0,0,0,0,0,0,0,0,0,0,0,0,0,0,0,0,0,0,0,0,0,0,0,0,0,0,0,0,0,0,0,0,0,0,0,0,0,0,0,0,0,0,0,0,0,0,0,-0.1682,-0.1681,0,-0.1637,-0.1636,-0.1635,-0.1593,-0.1592,-0.1592,-0.1591,-0.1544,-0.1543,-0.1542,0,0,0,0,0,0,0,0,0,0,0,0,0,-0.1733,-0.1732,-0.1682,-0.1681,-0.1681,-0.1637,-0.1636,-0.1635,-0.1593,-0.1592,-0.1592,-0.1591,-0.1544,-0.1543,-0.1542,0,0,0,0,0,0,0,0,0,0,0,0,0,-0.1701,-0.1732,-0.1682,-0.1654,-0.1651,-0.1637,-0.1636,-0.1635,-0.1593,-0.1592,-0.1592,-0.1591,-0.1544,-0.1543,-0.1542,-0.155,0,0,-0.1538,-0.1538,0,0,0,0,0,0,0,0,-0.1703,-0.1699,-0.1659,-0.1656,-0.1653,-0.162,-0.1636,-0.1607,-0.1593,-0.1615,-0.1591,-0.1591,-0.157,-0.1566,-0.1559,-0.1548,-0.1546,-0.1538,-0.1538,-0.1537,-0.1537,0,0,0,0,0,0,0,-0.1705,-0.1701,-0.1664,-0.1659,-0.1655,-0.1644,-0.1639,-0.163,-0.1597,-0.1613,-0.161,-0.1605,-0.1568,-0.1561,-0.1558,-0.1545,-0.1538,-0.1537,-0.1537,-0.1536,-0.1542,-0.1543,0,0,0,0,0,0,-0.1712,-0.1703,-0.1665,-0.1663,-0.1677,-0.1644,-0.1638,-0.1631,-0.1597,-0.1591,-0.1606,-0.1604,-0.1563,-0.1559,-0.1556,-0.1566,-0.1537,-0.1536,-0.1535,-0.1541,-0.1542,-0.1543,0,0,0,0,0,0,-0.1713,-0.1709,-0.1667,-0.1682,-0.1676,-0.1644,-0.1637,-0.1631,-0.1623,-0.1592,-0.1586,-0.1605,-0.1562,-0.1558,-0.1553,-0.1564,-0.1535,-0.1534,-0.154,-0.1542,-0.1543,-0.1585,0,0,0,0,0,0,-0.1715,-0.1709,-0.1712,-0.1682,-0.1675,-0.1665,-0.1637,-0.163,-0.1622,-0.1618,-0.1589,-0.1584,-0.1561,-0.1555,-0.1552,-0.1562,-0.1533,-0.1539,-0.1541,-0.1542,-0.1582,-0.1587,-0.1591,0,0,0,0,0,-0.1716,-0.1725,-0.1712,-0.1708,-0.1678,-0.1665,-0.1661,-0.1636,-0.1623,-0.1626,-0.1606,-0.1585,-0.1563,-0.1555,-0.1551,-0.156,-0.1538,-0.154,-0.1542,-0.158,-0.1586,-0.1591,0,0,0,0,0,0,-0.1755,-0.172,-0.1706,-0.1705,-0.1689,-0.1658,-0.1661,-0.1643,-0.1629,-0.1626,-0.1595,-0.1589,-0.1588,-0.1573,-0.1565,-0.1568,-0.1548,-0.1549,-0.1578,-0.1583,-0.1588,-0.1592,-0.1533,0,0,0,0,0,-0.1764,-0.1757,-0.1726,-0.1728,-0.1721,-0.1693,-0.1686,-0.1668,-0.165,-0.1642,-0.1622,-0.1605,-0.1594,-0.1588,-0.1576,-0.158,-0.1574,-0.1584,-0.1589,-0.1593,-0.1595,-0.1598,-0.1603,-0.155,-0.155,-0.1549,0,0,-0.1781,-0.1761,-0.1758,-0.1736,-0.1721,-0.1715,-0.1687,-0.1681,-0.1676,-0.1641,-0.1636,-0.1621,-0.16,-0.16,-0.1599,-0.1588,-0.1609,-0.1596,-0.1599,-0.1599,-0.1601,-0.1606,-0.1611,-0.1551,-0.1551,-0.155,0,0,-0.181,-0.1793,-0.1795,-0.1781,-0.1759,-0.1741,-0.1741,-0.1714,-0.1703,-0.1698,-0.1672,-0.1666,-0.1648,-0.1635,-0.1626,-0.1653,-0.1634,-0.165,-0.1674,-0.1678,-0.1682,-0.1686,-0.1697,-0.1702,-0.1651,-0.1651,-0.1651,0,-0.1834,-0.1824,-0.1797,-0.1794,-0.1785,-0.1754,-0.1756,-0.1744,-0.1719,-0.1715,-0.1703,-0.1681,-0.1665,-0.1663,-0.167,-0.1663,-0.1663,-0.1653,-0.1684,-0.1687,-0.169,-0.1701,-0.1705,-0.1654,-0.1653,-0.1653,-0.1653,0,-0.1856,-0.1849,-0.1853,-0.1832,-0.1824,-0.1822,-0.1796,-0.1791,-0.1775,-0.1758,-0.1754,-0.1733,-0.1718,-0.1716,-0.1699,-0.1712,-0.1707,-0.169,-0.1669,-0.1698,-0.1708,-0.1711,-0.1657,-0.1656,-0.1655,-0.1655,0,0,-0.1907,-0.1873,-0.1875,-0.1866,-0.1841,-0.1836,-0.1834,-0.182,-0.1818,-0.1802,-0.1801,-0.1788,-0.1773,-0.1763,-0.1744,-0.1747,-0.1773,-0.173,-0.1729,-0.174,-0.1789,-0.1803,-0.1808,-0.176,-0.176,-0.1761,-0.1791,0,-0.1933,-0.1929,-0.1906,-0.1908,-0.1903,-0.1875,-0.1874,-0.1859,-0.1843,-0.1837,-0.1819,-0.1812,-0.1791,-0.1786,-0.1787,-0.1769,-0.1782,-0.1766,-0.1759,-0.1759,-0.1767,-0.1813,-0.1827,-0.1857,-0.1795,-0.1795,-0.1796,0,-0.1962,-0.1951,-0.1953,-0.1931,-0.1928,-0.1927,-0.1914,-0.1908,-0.1891,-0.188,-0.187,-0.185,-0.1848,-0.1828,-0.1825,-0.1815,-0.1811,-0.1802,-0.1803,-0.1802,-0.178,-0.1815,-0.1866,-0.1871,-0.1801,-0.1801,-0.18,0,-0.2002,-0.1987,-0.1987,-0.198,-0.1953,-0.1954,-0.1943,-0.1925,-0.192,-0.1908,-0.1904,-0.1892,-0.1886,-0.1878,-0.1855,-0.1843,-0.1857,-0.1834,-0.1848,-0.1849,-0.1853,-0.1853,-0.1906,-0.1848,-0.1848,-0.1848,-0.1848,0,-0.2034,-0.2037,-0.2005,-0.2005,-0.2009,-0.1983,-0.1987,-0.1973,-0.1958,-0.1956,-0.193,-0.1929,-0.1898,-0.1894,-0.1876,-0.1878,-0.1875,-0.1867,-0.1862,-0.187,-0.1871,-0.1868,-0.1866,-0.1849,-0.1849,-0.1848,-0.1848,0,-0.2079,-0.2057,-0.2056,-0.2032,-0.2026,-0.203,-0.2009,-0.2009,-0.1993,-0.1991,-0.1989,-0.1963,-0.1957,-0.1933,-0.192,-0.1909,-0.1917,-0.1907,-0.1924,-0.1921,-0.1937,-0.1937,-0.199,-0.1997,-0.1934,-0.1934,-0.1935,0,-0.2102,-0.2104,-0.2081,-0.2078,-0.2069,-0.2064,-0.2058,-0.2033,-0.2028,-0.2011,-0.2013,-0.2005,-0.1997,-0.1989,-0.1969,-0.196,-0.1951,-0.197,-0.1949,-0.1958,-0.1954,-0.1955,-0.1956,-0.1975,-0.1976,-0.1977,-0.1977,0,-0.2145,-0.2135,-0.2128,-0.2119,-0.2113,-0.2104,-0.2093,-0.2092,-0.2065,-0.2061,-0.2055,-0.2049,-0.2037,-0.203,-0.2018,-0.2007,-0.1989,-0.1984,-0.1987,-0.1996,-0.2006,-0.2003,-0.1938,-0.1983,-0.1982,-0.1982,-0.1982,-0.1981,-0.2181,-0.2183,-0.2168,-0.2162,-0.2151,-0.2143,-0.2142,-0.2127,-0.2121,-0.2111,-0.2096,-0.2092,-0.2077,-0.206,-0.2051,-0.2048,-0.2037,-0.2041,-0.2042,-0.2044,-0.2049,-0.2005,-0.2045,-0.2045,-0.2045,-0.2045,-0.2044,0,-0.2225,-0.2215,-0.2209,-0.2196,-0.2192,-0.2175,-0.2163,-0.2161,-0.2158,-0.2146,-0.214,-0.2134,-0.2128,-0.2108,-0.21,-0.2102,-0.2093,-0.2101,-0.2101,-0.21,-0.2058,-0.2057,-0.2108,-0.2108,-0.2108,-0.2108,-0.2108,-0.2108,-0.2248,-0.2251,-0.2239,-0.2237,-0.2226,-0.2223,-0.2218,-0.2211,-0.2201,-0.2196,-0.2191,-0.2179,-0.2165,-0.2156,-0.215,-0.2144,-0.2144,-0.2155,-0.2147,-0.2108,-0.2102,-0.2096,-0.2096,-0.2154,-0.2154,-0.2189,-0.2189,-0.2189]},{"header":{"parameterUnit":"m.s-1","parameterCategory":1,"la1":30.2991,"la2":30.254,"lo1":-89.0895,"lo2":-89.0444,"dy":0.0017,"dx":0.0017,"nx":28,"ny":28,"refTime":"2024-03-16T03:00:00:Z","depth":0,"parameterNumber":3,"parameterNumberName":"V-component_of_WINDS"},"data":[0,0,0,0,0,0,0,0,0,0,0,0,0,0,0,0,0,0,0,0,0,0,0,0,0,0,0,0,0,0,0,0,0,0,0,0,0,0,0,0,0,0,0,0,0,0,0,0,0,0,0,0,0,0,0,0,0,0,1.7778,1.7778,0,1.7787,1.7787,1.7787,1.7788,1.7788,1.7788,1.7788,1.7795,1.7795,1.7795,0,0,0,0,0,0,0,0,0,0,0,0,0,1.7759,1.7759,1.7778,1.7778,1.7778,1.7787,1.7787,1.7787,1.7788,1.7788,1.7788,1.7788,1.7795,1.7795,1.7795,0,0,0,0,0,0,0,0,0,0,0,0,0,1.7767,1.7759,1.7778,1.778,1.778,1.7787,1.7787,1.7787,1.7788,1.7788,1.7788,1.7788,1.7795,1.7795,1.7795,1.78,0,0,1.7796,1.7797,0,0,0,0,0,0,0,0,1.7767,1.7768,1.778,1.778,1.778,1.7786,1.7782,1.7791,1.7788,1.7785,1.7788,1.7788,1.7792,1.7792,1.7794,1.78,1.78,1.7796,1.7797,1.7797,1.7797,0,0,0,0,0,0,0,1.7766,1.7767,1.7781,1.778,1.778,1.7779,1.778,1.7784,1.7789,1.7785,1.7786,1.7787,1.7792,1.7794,1.7794,1.78,1.7796,1.7797,1.7797,1.7797,1.7807,1.7807,0,0,0,0,0,0,1.7766,1.7767,1.7781,1.7782,1.7773,1.778,1.7781,1.7784,1.7789,1.779,1.7787,1.7787,1.7793,1.7794,1.7795,1.7799,1.7797,1.7797,1.7797,1.7807,1.7807,1.7807,0,0,0,0,0,0,1.7765,1.7767,1.7781,1.7774,1.7776,1.778,1.7784,1.7785,1.7787,1.779,1.7791,1.7788,1.7793,1.7794,1.7798,1.7799,1.7797,1.7798,1.7807,1.7807,1.7807,1.7807,0,0,0,0,0,0,1.7765,1.7767,1.7769,1.7774,1.7776,1.7785,1.7784,1.7785,1.7787,1.7787,1.7791,1.7792,1.7793,1.7797,1.7798,1.7799,1.7798,1.7807,1.7807,1.7807,1.7807,1.7807,1.7807,0,0,0,0,0,1.7764,1.7769,1.777,1.7771,1.778,1.7785,1.7786,1.7788,1.7788,1.779,1.7791,1.7792,1.7799,1.7798,1.7799,1.78,1.7807,1.7807,1.7807,1.7807,1.7807,1.7807,0,0,0,0,0,0,1.7764,1.777,1.777,1.7778,1.7781,1.7785,1.7788,1.7789,1.7792,1.7792,1.7793,1.7794,1.7798,1.7799,1.7798,1.7803,1.7803,1.7803,1.7802,1.7802,1.7802,1.7802,1.7798,0,0,0,0,0,1.7765,1.7769,1.7774,1.778,1.7781,1.7784,1.7787,1.7788,1.7791,1.7792,1.7795,1.7797,1.7799,1.7801,1.7803,1.7807,1.7807,1.7808,1.7808,1.7808,1.7809,1.7809,1.7809,1.7808,1.7808,1.7808,0,0,1.7767,1.777,1.7773,1.778,1.7782,1.7786,1.7786,1.779,1.7792,1.7793,1.7796,1.7798,1.78,1.7804,1.7805,1.7805,1.7809,1.7809,1.7809,1.7809,1.7809,1.7809,1.7809,1.7808,1.7808,1.7808,0,0,1.7772,1.7776,1.778,1.7782,1.7786,1.7788,1.7789,1.7793,1.7794,1.7798,1.7798,1.78,1.7804,1.7805,1.7807,1.7809,1.7809,1.781,1.7811,1.7811,1.7811,1.7811,1.7811,1.7811,1.781,1.781,1.781,0,1.7773,1.7779,1.7782,1.7786,1.7788,1.7789,1.7792,1.7794,1.7798,1.7799,1.7799,1.7803,1.7805,1.7808,1.7808,1.781,1.781,1.781,1.7811,1.7811,1.7811,1.7811,1.7811,1.781,1.781,1.781,1.781,0,1.778,1.7784,1.7787,1.7791,1.7794,1.7797,1.7799,1.78,1.7801,1.7802,1.7804,1.7806,1.7808,1.7809,1.781,1.7811,1.7811,1.7811,1.781,1.7811,1.7811,1.7811,1.781,1.781,1.781,1.781,0,0,1.7787,1.7791,1.7792,1.7793,1.7796,1.7799,1.7801,1.7804,1.7804,1.7807,1.7808,1.7811,1.781,1.7811,1.7812,1.7812,1.7812,1.7812,1.7812,1.7811,1.7812,1.7812,1.7812,1.7812,1.7812,1.7812,1.7812,0,1.7791,1.7797,1.7798,1.7802,1.7805,1.7805,1.7807,1.7808,1.7809,1.781,1.781,1.7812,1.7811,1.7812,1.7812,1.7812,1.7812,1.7812,1.7812,1.7812,1.7811,1.7812,1.7812,1.7812,1.7812,1.7812,1.7812,0,1.7798,1.78,1.7804,1.7806,1.7807,1.7809,1.781,1.7812,1.7812,1.7812,1.7813,1.7813,1.7814,1.7813,1.7813,1.7813,1.7813,1.7812,1.7812,1.7812,1.7812,1.7811,1.7812,1.7811,1.7812,1.7812,1.7812,0,1.78,1.7804,1.7807,1.7808,1.781,1.7811,1.7812,1.7812,1.7813,1.7814,1.7814,1.7814,1.7814,1.7814,1.7813,1.7813,1.7813,1.7813,1.7812,1.7812,1.7812,1.7812,1.7812,1.7813,1.7813,1.7813,1.7813,0,1.7805,1.7807,1.7808,1.781,1.7812,1.7812,1.7814,1.7814,1.7815,1.7815,1.7815,1.7815,1.7815,1.7814,1.7814,1.7813,1.7813,1.7813,1.7812,1.7812,1.7812,1.7812,1.7812,1.7813,1.7813,1.7813,1.7813,0,1.7808,1.7809,1.7812,1.7813,1.7813,1.7815,1.7815,1.7816,1.7816,1.7816,1.7816,1.7816,1.7815,1.7815,1.7814,1.7813,1.7812,1.7812,1.7812,1.7812,1.7811,1.7811,1.7811,1.781,1.7812,1.7812,1.7812,0,1.7811,1.7813,1.7814,1.7814,1.7815,1.7816,1.7816,1.7816,1.7817,1.7816,1.7817,1.7816,1.7816,1.7815,1.7814,1.7813,1.7812,1.7812,1.7812,1.7811,1.7811,1.7811,1.781,1.7812,1.7812,1.7812,1.7812,0,1.7815,1.7815,1.7816,1.7817,1.7817,1.7818,1.7818,1.7818,1.7818,1.7818,1.7818,1.7817,1.7816,1.7815,1.7813,1.7813,1.7812,1.7812,1.7811,1.7811,1.7811,1.781,1.7812,1.7812,1.7812,1.7812,1.7812,1.7812,1.7818,1.7819,1.7819,1.782,1.782,1.782,1.782,1.7819,1.7819,1.7819,1.7818,1.7817,1.7816,1.7814,1.7813,1.7811,1.7811,1.7811,1.7811,1.7811,1.781,1.7811,1.7811,1.7811,1.7811,1.7811,1.7811,0,1.7821,1.7821,1.7822,1.7822,1.7822,1.7821,1.7821,1.782,1.782,1.7819,1.7818,1.7817,1.7815,1.7814,1.7812,1.7811,1.781,1.781,1.781,1.7809,1.7811,1.7811,1.7811,1.7811,1.7811,1.7811,1.7811,1.7811,1.7823,1.7824,1.7823,1.7823,1.7823,1.7823,1.7822,1.7821,1.782,1.7819,1.7818,1.7817,1.7815,1.7813,1.7811,1.781,1.7809,1.7809,1.7808,1.7809,1.781,1.781,1.781,1.7809,1.7809,1.7807,1.7807,1.7807]}]]